[[{"header":{"parameterUnit":"m.s-1","parameterCategory":1,"la1":30.2991,"la2":30.254,"lo1":-89.0895,"lo2":-89.0444,"dy":0.0017,"dx":0.0017,"nx":28,"ny":28,"refTime":"2025-07-08T09:00:00:Z","depth":0,"parameterNumber":2,"parameterNumberName":"U-component_of_WINDS"},"data":[0,0,0,0,0,0,0,0,0,0,0,0,0,0,0,0,0,0,0,0,0,0,0,0,0,0,0,0,0,0,0,0,0,0,0,0,0,0,0,0,0,0,0,0,0,0,0,0,0,0,0,0,0,0,0,0,0,0,1.4453,1.4454,0,1.4549,1.455,1.4551,1.4571,1.457,1.4569,1.4568,1.4673,1.4676,1.4679,0,0,0,0,0,0,0,0,0,0,0,0,0,1.4294,1.4296,1.4453,1.4454,1.4455,1.4549,1.455,1.4551,1.4571,1.457,1.4569,1.4568,1.4671,1.4676,1.468,0,0,0,0,0,0,0,0,0,0,0,0,0,1.4374,1.4297,1.4453,1.4476,1.4479,1.4548,1.455,1.4552,1.4571,1.457,1.4569,1.4568,1.467,1.4675,1.468,1.4735,0,0,1.4696,1.4698,0,0,0,0,0,0,0,0,1.4369,1.4379,1.4472,1.4475,1.4478,1.4546,1.4532,1.4613,1.4571,1.4536,1.4568,1.4567,1.4632,1.464,1.4661,1.474,1.4744,1.4697,1.47,1.4702,1.4703,0,0,0,0,0,0,0,1.4363,1.4376,1.4491,1.4473,1.4477,1.4484,1.4494,1.4547,1.4589,1.4539,1.4541,1.4552,1.4634,1.4656,1.4663,1.4746,1.4696,1.4701,1.4704,1.4706,1.4876,1.4877,0,0,0,0,0,0,1.4353,1.4371,1.4488,1.4494,1.442,1.4488,1.4499,1.4526,1.4589,1.4597,1.4552,1.4552,1.4647,1.4657,1.4667,1.4736,1.4702,1.4707,1.471,1.4874,1.4876,1.4877,0,0,0,0,0,0,1.4349,1.4363,1.4484,1.4433,1.4449,1.4492,1.4522,1.4528,1.455,1.4599,1.4607,1.4567,1.4647,1.466,1.4718,1.474,1.4709,1.4714,1.4873,1.4875,1.4877,1.4873,0,0,0,0,0,0,1.4345,1.4362,1.4381,1.4433,1.4451,1.4531,1.4523,1.4531,1.4559,1.4559,1.4614,1.4623,1.4647,1.471,1.4723,1.4746,1.4718,1.4871,1.4874,1.4876,1.4872,1.4875,1.4878,0,0,0,0,0,1.4339,1.4378,1.4382,1.4396,1.4476,1.4532,1.4543,1.4568,1.456,1.4581,1.4613,1.4621,1.4735,1.4715,1.473,1.4756,1.487,1.4873,1.4876,1.487,1.4875,1.4878,0,0,0,0,0,0,1.433,1.4385,1.4391,1.4447,1.4484,1.4535,1.4563,1.4572,1.4614,1.4613,1.4645,1.4657,1.4714,1.4741,1.4718,1.4813,1.4802,1.4808,1.4793,1.4797,1.48,1.4793,1.4722,0,0,0,0,0,1.4334,1.4372,1.442,1.4465,1.4483,1.452,1.4545,1.4561,1.4602,1.4619,1.4655,1.4696,1.4741,1.4771,1.4815,1.4876,1.4889,1.4901,1.4904,1.4906,1.4912,1.4947,1.4953,1.4888,1.4888,1.4887,0,0,1.4344,1.4378,1.4401,1.4464,1.4495,1.4537,1.4533,1.4577,1.4609,1.4627,1.4683,1.471,1.4759,1.4819,1.4847,1.4843,1.4932,1.491,1.4911,1.4916,1.4951,1.4957,1.4962,1.489,1.4889,1.4889,0,0,1.4382,1.4412,1.4453,1.4484,1.4531,1.4555,1.4565,1.4614,1.4633,1.4689,1.4704,1.4743,1.482,1.4854,1.4882,1.4934,1.4944,1.4948,1.4965,1.4999,1.5004,1.5009,1.5029,1.5035,1.4953,1.4953,1.4953,0,1.4389,1.445,1.4474,1.4517,1.4545,1.4561,1.4604,1.4634,1.4693,1.4713,1.4707,1.4805,1.4839,1.4907,1.4919,1.4941,1.4955,1.4942,1.5001,1.5006,1.5011,1.503,1.5038,1.4953,1.4953,1.4953,1.4953,0,1.4457,1.4499,1.4528,1.4582,1.4613,1.4657,1.4689,1.4718,1.4731,1.4757,1.4815,1.4856,1.4909,1.4927,1.4941,1.4998,1.4994,1.4994,1.4984,1.5017,1.5036,1.5043,1.4953,1.4953,1.4953,1.4953,0,0,1.4494,1.456,1.457,1.4596,1.4648,1.4683,1.4728,1.4778,1.4803,1.4843,1.4883,1.4948,1.4948,1.4979,1.4998,1.5028,1.5068,1.5025,1.5026,1.5032,1.5135,1.5135,1.5143,1.5074,1.5076,1.5077,1.5131,0,1.454,1.4618,1.464,1.4707,1.4747,1.4763,1.4802,1.484,1.4865,1.4905,1.4933,1.4979,1.4975,1.4994,1.5024,1.5056,1.5089,1.5053,1.5114,1.5116,1.5102,1.5153,1.5153,1.5202,1.5138,1.514,1.5141,0,1.4604,1.4644,1.4714,1.4762,1.478,1.4814,1.4862,1.4899,1.4943,1.4959,1.4994,1.501,1.5059,1.5046,1.5116,1.509,1.5117,1.5136,1.5139,1.5147,1.5131,1.5163,1.5218,1.5226,1.5152,1.5151,1.515,0,1.4625,1.4697,1.4748,1.4769,1.4826,1.485,1.4875,1.4918,1.4947,1.4989,1.5009,1.5058,1.5085,1.5123,1.5153,1.514,1.522,1.5209,1.5237,1.5236,1.5254,1.5253,1.5315,1.5269,1.5269,1.5269,1.5269,0,1.4675,1.4718,1.4758,1.479,1.4838,1.4865,1.4913,1.494,1.4977,1.5016,1.5033,1.507,1.5106,1.5147,1.5171,1.5226,1.5238,1.5254,1.526,1.5253,1.5251,1.5272,1.527,1.5271,1.527,1.527,1.527,0,1.4707,1.4736,1.4793,1.4841,1.4855,1.4889,1.4932,1.4964,1.4989,1.5038,1.5051,1.5092,1.5142,1.5175,1.5239,1.5255,1.5315,1.532,1.53,1.5303,1.533,1.5327,1.5409,1.5421,1.5365,1.5366,1.5366,0,1.4738,1.4771,1.4822,1.4848,1.4873,1.4915,1.4944,1.4972,1.5003,1.5055,1.5082,1.5132,1.5175,1.5254,1.5291,1.5341,1.5348,1.5373,1.5355,1.5348,1.535,1.5347,1.5352,1.5376,1.5376,1.5377,1.5377,0,1.479,1.4802,1.4842,1.4887,1.4921,1.4959,1.4997,1.5018,1.5053,1.5086,1.5136,1.5169,1.5234,1.5285,1.5338,1.5367,1.5379,1.5382,1.5391,1.5385,1.5373,1.5381,1.5309,1.538,1.538,1.538,1.5379,1.5379,1.4823,1.4853,1.4894,1.4939,1.497,1.5005,1.5038,1.5066,1.5108,1.5162,1.5176,1.5229,1.5274,1.5346,1.5375,1.5419,1.5416,1.5429,1.5433,1.5436,1.5437,1.5364,1.5428,1.5428,1.5428,1.5428,1.5428,0,1.4877,1.4903,1.4944,1.4996,1.5031,1.5036,1.5079,1.5109,1.5155,1.5194,1.5234,1.5293,1.5343,1.5383,1.5434,1.5461,1.5468,1.5474,1.5473,1.548,1.5436,1.5423,1.5468,1.5468,1.5468,1.5468,1.5468,1.5468,1.4909,1.496,1.4978,1.5046,1.5073,1.5123,1.5147,1.518,1.5212,1.5275,1.5316,1.5341,1.5381,1.5436,1.5482,1.5493,1.5512,1.5517,1.5529,1.5487,1.5483,1.5479,1.5467,1.552,1.552,1.5569,1.557,1.557]},{"header":{"parameterUnit":"m.s-1","parameterCategory":1,"la1":30.2991,"la2":30.254,"lo1":-89.0895,"lo2":-89.0444,"dy":0.0017,"dx":0.0017,"nx":28,"ny":28,"refTime":"2025-07-08T09:00:00:Z","depth":0,"parameterNumber":3,"parameterNumberName":"V-component_of_WINDS"},"data":[0,0,0,0,0,0,0,0,0,0,0,0,0,0,0,0,0,0,0,0,0,0,0,0,0,0,0,0,0,0,0,0,0,0,0,0,0,0,0,0,0,0,0,0,0,0,0,0,0,0,0,0,0,0,0,0,0,0,1.2824,1.2824,0,1.2833,1.2833,1.2833,1.2833,1.2833,1.2833,1.2833,1.284,1.284,1.284,0,0,0,0,0,0,0,0,0,0,0,0,0,1.2803,1.2803,1.2824,1.2824,1.2824,1.2833,1.2833,1.2833,1.2833,1.2833,1.2833,1.2833,1.284,1.284,1.284,0,0,0,0,0,0,0,0,0,0,0,0,0,1.2812,1.2803,1.2824,1.2825,1.2826,1.2833,1.2833,1.2833,1.2833,1.2833,1.2833,1.2833,1.284,1.284,1.284,1.2846,0,0,1.2842,1.2842,0,0,0,0,0,0,0,0,1.2811,1.2813,1.2825,1.2825,1.2826,1.2832,1.2828,1.2837,1.2833,1.283,1.2833,1.2833,1.2837,1.2838,1.284,1.2846,1.2846,1.2842,1.2842,1.2842,1.2842,0,0,0,0,0,0,0,1.2811,1.2812,1.2827,1.2825,1.2826,1.2824,1.2825,1.283,1.2834,1.2831,1.2831,1.2832,1.2837,1.2839,1.284,1.2846,1.2842,1.2842,1.2842,1.2842,1.2853,1.2853,0,0,0,0,0,0,1.281,1.2812,1.2827,1.2828,1.2818,1.2825,1.2826,1.283,1.2834,1.2835,1.2832,1.2832,1.2839,1.2839,1.284,1.2844,1.2842,1.2842,1.2843,1.2853,1.2853,1.2853,0,0,0,0,0,0,1.281,1.2812,1.2827,1.282,1.2821,1.2825,1.283,1.283,1.2832,1.2835,1.2836,1.2833,1.2838,1.2839,1.2843,1.2844,1.2843,1.2843,1.2853,1.2853,1.2853,1.2854,0,0,0,0,0,0,1.2809,1.2812,1.2815,1.282,1.2822,1.2832,1.283,1.283,1.2833,1.2833,1.2837,1.2837,1.2838,1.2843,1.2844,1.2845,1.2843,1.2853,1.2853,1.2853,1.2854,1.2854,1.2854,0,0,0,0,0,1.2808,1.2815,1.2815,1.2817,1.2826,1.2832,1.2833,1.2835,1.2833,1.2836,1.2837,1.2837,1.2844,1.2843,1.2844,1.2846,1.2853,1.2853,1.2853,1.2854,1.2854,1.2854,0,0,0,0,0,0,1.281,1.2816,1.2816,1.2825,1.2828,1.2832,1.2835,1.2835,1.2838,1.2838,1.2839,1.284,1.2843,1.2845,1.2844,1.2849,1.2848,1.2849,1.2848,1.2848,1.2848,1.2848,1.2844,0,0,0,0,0,1.2812,1.2817,1.2821,1.2828,1.2829,1.2832,1.2834,1.2835,1.2838,1.2839,1.2841,1.2843,1.2845,1.2847,1.2849,1.2854,1.2853,1.2855,1.2855,1.2855,1.2855,1.2854,1.2854,1.2854,1.2854,1.2854,0,0,1.2815,1.2818,1.2822,1.2828,1.2831,1.2834,1.2833,1.2838,1.2839,1.284,1.2843,1.2844,1.2846,1.285,1.2851,1.2851,1.2855,1.2855,1.2855,1.2855,1.2854,1.2854,1.2854,1.2854,1.2854,1.2854,0,0,1.2822,1.2826,1.2831,1.2833,1.2836,1.2837,1.2838,1.2842,1.2843,1.2846,1.2846,1.2847,1.2852,1.2852,1.2853,1.2856,1.2855,1.2857,1.2858,1.2857,1.2857,1.2857,1.2856,1.2856,1.2857,1.2857,1.2857,0,1.2825,1.2832,1.2833,1.2837,1.2839,1.2839,1.2842,1.2844,1.2848,1.2848,1.2847,1.2851,1.2853,1.2855,1.2855,1.2857,1.2856,1.2857,1.2857,1.2857,1.2857,1.2856,1.2856,1.2857,1.2857,1.2857,1.2857,0,1.2834,1.2838,1.2841,1.2844,1.2846,1.285,1.285,1.2852,1.2851,1.2852,1.2854,1.2855,1.2856,1.2857,1.2857,1.2858,1.2857,1.2857,1.2856,1.2857,1.2856,1.2856,1.2857,1.2857,1.2857,1.2857,0,0,1.2844,1.2846,1.2847,1.2847,1.285,1.2852,1.2854,1.2855,1.2855,1.2857,1.2857,1.286,1.2858,1.2859,1.2859,1.2858,1.2858,1.2858,1.2858,1.2856,1.2855,1.2855,1.2855,1.2857,1.2857,1.2857,1.2855,0,1.285,1.2855,1.2855,1.2859,1.2861,1.2859,1.286,1.2861,1.286,1.286,1.286,1.286,1.286,1.286,1.2859,1.2858,1.2857,1.2858,1.2855,1.2855,1.2854,1.2855,1.2855,1.2853,1.2855,1.2855,1.2854,0,1.2859,1.286,1.2863,1.2862,1.2863,1.2865,1.2864,1.2865,1.2864,1.2863,1.2863,1.2862,1.2861,1.286,1.2858,1.2859,1.2857,1.2856,1.2856,1.2855,1.2855,1.2853,1.2853,1.2852,1.2854,1.2854,1.2854,0,1.2863,1.2866,1.2867,1.2868,1.2867,1.2868,1.2867,1.2866,1.2866,1.2865,1.2864,1.2863,1.2862,1.286,1.2858,1.2858,1.2855,1.2855,1.2853,1.2853,1.2853,1.2853,1.2851,1.2853,1.2853,1.2853,1.2853,0,1.2869,1.2871,1.2869,1.287,1.2871,1.287,1.287,1.2869,1.2868,1.2867,1.2865,1.2864,1.2862,1.286,1.2858,1.2855,1.2855,1.2853,1.2852,1.2853,1.2853,1.2852,1.2851,1.2853,1.2853,1.2853,1.2853,0,1.2875,1.2874,1.2875,1.2874,1.2873,1.2874,1.2872,1.2871,1.287,1.2869,1.2868,1.2865,1.2863,1.286,1.2857,1.2855,1.2851,1.2851,1.2852,1.2851,1.2849,1.2849,1.2846,1.2845,1.2849,1.2849,1.2849,0,1.2879,1.288,1.2878,1.2877,1.2876,1.2876,1.2875,1.2873,1.2872,1.2869,1.2868,1.2865,1.2863,1.2858,1.2855,1.2851,1.285,1.2849,1.285,1.2849,1.2848,1.2848,1.2847,1.2849,1.2849,1.2849,1.2849,0,1.2884,1.2883,1.2882,1.2881,1.2879,1.2878,1.2876,1.2876,1.2873,1.2871,1.2868,1.2866,1.2861,1.2858,1.2853,1.2851,1.2849,1.2849,1.2848,1.2848,1.2848,1.2846,1.2851,1.2849,1.2849,1.2849,1.2849,1.2849,1.2888,1.2888,1.2885,1.2884,1.2882,1.288,1.2878,1.2876,1.2874,1.287,1.2868,1.2865,1.2861,1.2854,1.2852,1.2847,1.2847,1.2846,1.2846,1.2845,1.2845,1.2849,1.2847,1.2847,1.2847,1.2847,1.2847,0,1.2892,1.289,1.2888,1.2885,1.2883,1.2882,1.2879,1.2877,1.2874,1.287,1.2867,1.2862,1.2858,1.2853,1.2848,1.2845,1.2844,1.2844,1.2844,1.2843,1.2846,1.2847,1.2845,1.2845,1.2845,1.2845,1.2845,1.2845,1.2894,1.2892,1.289,1.2887,1.2884,1.2881,1.2879,1.2876,1.2873,1.2868,1.2864,1.2861,1.2856,1.285,1.2845,1.2844,1.2841,1.2841,1.2839,1.2842,1.2843,1.2843,1.2843,1.2841,1.2841,1.2836,1.2836,1.2836]}]]